User: anonymous   Login
Location: Hamburg
(53.5500°N, 10.0000°E)
Time: 19:13:36
(UTC+01:00)
Language:

Iridium 10 - Orbit

View from above orbital plane
View from above orbital plane
View from above satellite
View from above satellite

Ground track
Ground track

The orbit data is extracted from the following two-line orbital elements,

1 24839U 97030D   17021.52975545 -.00000026  00000-0 -16463-4 0  9992
2 24839  86.3932  51.3875 0002033  89.1021  75.6670 14.34218326 25931
Epoch (UTC): 21 January 2017 12:42:50
Eccentricity: 0.0002033
inclination: 86.3932°
perigee height: 776 km
apogee height: 779 km
right ascension of ascending node: 51.3875°
argument of perigee: 89.1021°
revolutions per day: 14.34218326
mean anomaly at epoch: 75.6670°
orbit number at epoch: 2593

The dashed part of the orbit path shows where the satellite is in the earth's shadow,  

DLR